Location: Hilton Head Island
(32.2163°N, 80.7526°W)
Time: 14:59:27
(UTC-04:00)

Vanguard 2 Rocket - Pass Details

Date: 23 February 2026
Orbit: 553 x 3286 km, 32.9° (Epoch: 10 March)

Event Time Altitude Azimuth Distance (km) Brightness Sun altitude
Rises 07:04:36 0° 187° (S) 5,944 11.1 0.7°
Reaches altitude 10° 07:10:04 10° 171° (S) 5,381 11.2 1.8°
Maximum altitude 07:20:38 20° 132° (SE) 5,189 11.9 4.0°
Drops below altitude 10° 07:32:35 10° 94° (E) 6,233 13.4 6.5°
Sets 07:39:33 0° 80° (E) 7,185 12.8 7.9°
